Tracking 30995 objects as of 5-Jul-2025
HD Live streaming from Space Station
objects crossing your sky now

NOAA 16 DEB

Track NOAA 16 DEB now!
10-day predictions


NORAD ID: 41053
Int'l Code: 2000-055L
Perigee: 718.3 km
Apogee: 758.3 km
Inclination: 99.0 °
Period: 99.4 minutes
Semi major axis: 7109 km
RCS: Unknown
Launch date: September 21, 2000
Source: United States (US)
Launch site: AIR FORCE WESTERN TEST RANGE (AFWTR)

Note: This is SATELLITE DEBRIS
Your satellite tracking list
Your tracking list is empty




NASA's NSSDC Master Catalog

Two Line Element Set (TLE):
1 41053U 00055L   25186.51818091  .00005899  00000-0  15824-2 0  9991
2 41053  99.0136  20.2922 0028150  72.3759 288.0503 14.48315082500073
Source of the keplerian elements: AFSPC